This is the latest recevied weather packets stored in our database for station/object DC5DM-13. If no packets are shown the sender has not sent any weather packets the latest 10 day(s).
| Time | Temp. | Humidity | Pressure | Rain* | Wind** | Luminosity | Snow |
|---|---|---|---|---|---|---|---|
| 1787739636 | 18.33° C | 86% | 1018.2 hPa | 0 mm | - | - | - |
| 1787739067 | 18.33° C | 86% | 1018.1 hPa | 0 mm | - | - | - |
| 1787738436 | 17.78° C | 88% | 1018.1 hPa | 0 mm | - | - | - |
| 1787737867 | 17.22° C | 89% | 1018.2 hPa | 0 mm | - | - | - |
| 1787737236 | 17.22° C | 89% | 1018 hPa | 0 mm | - | - | - |
| 1787736666 | 17.22° C | 90% | 1018.2 hPa | 0 mm | - | - | - |
| 1787736036 | 16.67° C | 90% | 1018.2 hPa | 0 mm | - | - | - |
| 1787735467 | 16.67° C | 91% | 1018.2 hPa | 0 mm | - | - | - |
| 1787734837 | 16.67° C | 91% | 1018.1 hPa | 0 mm | - | - | - |
| 1787734267 | 16.67° C | 91% | 1018 hPa | 0 mm | - | - | - |
| 1787733636 | 17.22° C | 91% | 1017.9 hPa | 0 mm | - | - | - |
| 1787733067 | 17.22° C | 91% | 1017.8 hPa | 0 mm | - | - | - |
| 1787732436 | 16.67° C | 92% | 1017.7 hPa | 0 mm | - | - | - |
| 1787731866 | 16.67° C | 93% | 1017.7 hPa | 0 mm | - | - | - |
| 1787731236 | 16.11° C | 93% | 1017.6 hPa | 0 mm | - | - | - |
| 1787730667 | 16.11° C | 94% | 1017.4 hPa | 0 mm | - | - | - |
| 1787730036 | 16.11° C | 94% | 1017.5 hPa | 0 mm | - | - | - |
| 1787729467 | 16.11° C | 94% | 1017.4 hPa | 0 mm | - | - | - |
| 1787728839 | 16.11° C | 94% | 1017.3 hPa | 0 mm | - | - | - |
| 1787728268 | 16.11° C | 95% | 1017.3 hPa | 0 mm | - | - | - |
| 1787727636 | 16.11° C | 96% | 1017.3 hPa | 0 mm | - | - | - |
| 1787727067 | 15.56° C | 98% | 1017.1 hPa | 0 mm | - | - | - |
| 1787726436 | 15.56° C | 99% | 1017.2 hPa | 0 mm | - | - | - |
| 1787725873 | 15° C | 99% | 1017 hPa | 0 mm | - | - | - |
| 1787725235 | 15° C | 99% | 1017 hPa | 0 mm | - | - | - |
* Rain latest hour (hover to see other rain measurements)
** Current wind speed in m/s (hover to see current wind gust speed)